Location: Amherst
(42.5000°N, 72.5000°W)
Time: 01:48:03
(UTC-04:00)

ISS - Pass Details

Date: 21 May 2018
Orbit: 402 x 407 km, 51.6° (Epoch: 23 May)

Event Time Altitude Azimuth Distance (km) Brightness Sun altitude
Rises 22:26:01 0° 252° (WSW) 2,312 0.2 -19.3°
Reaches altitude 10° 22:28:10 10° 260° (W) 1,454 -0.7 -19.5°
Maximum altitude 22:31:17 42° 333° (NNW) 585 -2.6 -19.8°
Drops below altitude 10° 22:34:25 10° 46° (NE) 1,459 -0.9 -20.1°
Sets 22:36:34 0° 54° (NE) 2,320 0.1 -20.4°
